This is the latest recevied weather packets stored in our database for station/object KF7SOJ. If no packets are shown the sender has not sent any weather packets the latest 10 day(s).
| Time | Temp. | Humidity | Pressure | Rain* | Wind** | Luminosity | Snow |
|---|---|---|---|---|---|---|---|
| 1787972361 | 21.67° C | 51% | 930.4 hPa | 0 mm | - | 0 W/m² | - |
| 1787972056 | 22.22° C | 50% | 930.3 hPa | 0 mm | - | 0 W/m² | - |
| 1787971751 | 22.22° C | 50% | 930.2 hPa | 0 mm | - | 0 W/m² | - |
| 1787971447 | 22.22° C | 50% | 930.1 hPa | 0 mm | - | 0 W/m² | - |
| 1787971143 | 22.22° C | 50% | 930.1 hPa | 0 mm | - | 0 W/m² | - |
| 1787970841 | 22.22° C | 50% | 930 hPa | 0 mm | - | 0 W/m² | - |
| 1787970536 | 22.78° C | 50% | 930 hPa | 0 mm | - | 0 W/m² | - |
| 1787970236 | 22.78° C | 49% | 930 hPa | 0 mm | - | 0 W/m² | - |
| 1787969930 | 22.78° C | 49% | 930 hPa | 0 mm | - | 0 W/m² | - |
| 1787969629 | 22.78° C | 49% | 930 hPa | 0 mm | - | 1 W/m² | - |
| 1787969329 | 22.78° C | 50% | 930 hPa | 0 mm | - | 1 W/m² | - |
| 1787969028 | 22.78° C | 49% | 929.8 hPa | 0 mm | - | 2 W/m² | - |
| 1787968723 | 23.33° C | 48% | 930.1 hPa | 0 mm | - | 6 W/m² | - |
| 1787968422 | 23.33° C | 47% | 930.1 hPa | 0 mm | - | 8 W/m² | - |
| 1787968118 | 23.89° C | 46% | 930 hPa | 0 mm | - | 12 W/m² | - |
| 1787967817 | 23.89° C | 46% | 930 hPa | 0 mm | - | 17 W/m² | - |
| 1787967515 | 24.44° C | 45% | 929.9 hPa | 0 mm | - | 24 W/m² | - |
| 1787967217 | 24.44° C | 45% | 929.9 hPa | 0 mm | - | 29 W/m² | - |
| 1787966906 | 25° C | 44% | 929.9 hPa | 0 mm | - | 33 W/m² | - |
| 1787966601 | 25.56° C | 43% | 929.8 hPa | 0 mm | - | 37 W/m² | - |
| 1787966301 | 26.11° C | 41% | 929.9 hPa | 0 mm | - | 47 W/m² | - |
| 1787965996 | 26.67° C | 41% | 930 hPa | 0 mm | - | 57 W/m² | - |
| 1787965691 | 26.11° C | 41% | 929.9 hPa | 0 mm | - | 65 W/m² | - |
| 1787965385 | 26.11° C | 41% | 930 hPa | 0 mm | - | 70 W/m² | - |
| 1787965085 | 26.11° C | 41% | 930.1 hPa | 0 mm | - | 86 W/m² | - |
* Rain latest hour (hover to see other rain measurements)
** Current wind speed in m/s (hover to see current wind gust speed)